Regional Weather Roundup
Issued by NWS

Home | Current Version | Previous Version | Text Only | Print | Product List | Glossary Off
Versions: 1 2 3 4 5 6 7 8 9 10 11 12 13 14 15 16 17 18 19 20 21 22 23 24 25 26 27 28 29 30 31 32 33 34 35 36 37 38 39 40 41 42 43 44 45 46 47 48 49 50

000
ASUS43 KLMK 290702
RWRKY
KENTUCKY REGIONAL WEATHER ROUNDUP
NATIONAL WEATHER SERVICE LOUISVILLE KY
300 AM EDT SAT APR 29 2017

NOTE "FAIR" INDICATES FEW OR NO CLOUDS BELOW 12,000 FEET
WITH NO SIGNIFICANT WEATHER AND/OR OBSTRUCTIONS TO VISIBILITY.

KYZ001>023-026-027-061>063-070>075-290800-
WESTERN AND SOUTH CENTRAL KENTUCKY

CITY           SKY/WX    TMP DP  RH WIND       PRES   REMARKS
PADUCAH        CLOUDY    78  67  68 S5        29.81S
HENDERSON      TSTM      66  64  93 SW3       29.88F
OWENSBORO      LGT RAIN  69  65  86 NE6       29.89F
HOPKINSVILLE   MOCLDY    76  68  74 S7        29.89R
BOWLING GREEN  CLOUDY    75  68  78 S7        29.93S
GLASGOW        NOT AVBL
$$

KYZ024-025-028>034-038-045-046-053-290800-
NORTH CENTRAL KENTUCKY

CITY           SKY/WX    TMP DP  RH WIND       PRES   REMARKS
LOUISVILLE/SDF TSTM      67  65  93 NW15G21   29.96R FOG
LOUISVILLE/LOU TSTM      65  65 100 E6        29.99R VSB 3/4
FORT KNOX      DRIZZLE   72  65  77 E3        29.92S
$$

KYZ035>037-039>044-047>052-055>060-089>105-290800-
NORTHEAST KENTUCKY

CITY           SKY/WX    TMP DP  RH WIND       PRES   REMARKS
LEXINGTON      CLOUDY    70  59  68 NW13      30.01R
COVINGTON      TSTM      66  65  96 S8        29.93S FOG
FRANKFORT      CLOUDY    65  61  87 CALM      29.97F
$$

KYZ054-064>069-076>088-106>120-290800-
SOUTHEAST KENTUCKY

CITY           SKY/WX    TMP DP  RH WIND       PRES   REMARKS
JACKSON        CLOUDY    74  63  68 VRB3      30.03R
LONDON         CLOUDY    68  62  81 CALM      30.02R
SOMERSET       CLOUDY    73  63  68 S5        30.02S
MIDDLESBORO    CLOUDY    75  64  67 CALM      30.05R
MONTICELLO     PTSUNNY   74  66  76 SW8       30.02R
$$




USA.gov is the U.S. government's official web portal to all federal, state and local government web resources and services.